Regional Weather Roundup
Issued by NWS Nashville, TN

Home | Current Version | Previous Version | Text Only | Print | Product List | Glossary On
Versions: 1 2 3 4 5 6 7 8 9 10 11 12 13 14 15 16 17 18 19 20 21 22 23 24 25 26 27 28 29 30 31 32 33 34 35 36 37 38 39 40 41 42 43 44 45 46 47 48 49 50
000
ASUS44 KOHX 021315
RWROHX
MIDDLE TENNESSEE HOURLY WEATHER ROUNDUP
NATIONAL WEATHER SERVICE NASHVILLE TN
800 AM CDT TUE JUN 02 2015

NOTE: "FAIR" INDICATES FEW OR NO CLOUDS BELOW 12,000 FEET WITH
NO SIGNIFICANT WEATHER AND/OR OBSTRUCTIONS TO VISIBILITY.

* THESE REPORTS ARE NOT UNDER NWS QUALITY CONTROL AND MAY NOT
  REPORT WEATHER SUCH AS PRECIPITATION AND FOG.


TNZ005>011-023>034-057-059-062>066-078-080-021400
...NORTHERN MIDDLE TENNESSEE...

CITY           SKY/WX    TMP DP  RH WIND       PRES   REMARKS
CASTALIAN SPRG   N/A     59  59 100 N6        29.90S
CLARKSVILLE    CLOUDY    60  57  89 N7        30.11R FOG
CROSSVILLE     CLOUDY    64  60  87 CALM      30.09R
GLADEVILLE*      N/A     59  59 100 NE1       30.06R
JOELTON*         N/A     59  59 100 CALM      30.05R
MOUNT JULIET*    N/A     61  59  94 CALM      29.95R
NASHVILLE      CLOUDY    61  59  94 N7        30.11R FOG
OLD HICKORY*     N/A     61  61 100 CALM      29.73R
PORTLAND         N/A     55  55 100 N6        30.10R
ROCKWOOD       CLOUDY    63  62  96 CALM      30.08R
SMYRNA         CLOUDY    62  60  93 N6        30.11R
SPARTA         CLOUDY    61  61 100 N5        30.08R
$$
TNZ056-058-060-061-075>077-079-093>097-021400
...SOUTHERN MIDDLE TENNESSEE...

CITY           SKY/WX    TMP DP  RH WIND       PRES   REMARKS
COLUMBIA       CLOUDY    63  61  94 NW5       30.08R
LEWISBURG      CLOUDY    62  60  93 N3        30.08R VSB 1
MANCHESTER*      N/A     61   0   8 CALM      30.03R
MCMINNVILLE    CLOUDY    63  63 100 N6        30.09R
MOUNT PLEASANT   N/A     61  61 100 CALM      30.03R
SHELBYVILLE    CLOUDY    64  63  94 N6        30.09S
TULLAHOMA      CLOUDY    61  61 100 NW8       30.09S
WINCHESTER     CLOUDY    64  63  94 NW5       30.08S
$$


...KEY TO REMARKS...
VSB - VISIBILITY IN MILES
WCI - WIND CHILL INDEX
HX  - HEAT INDEX




USA.gov is the U.S. government's official web portal to all federal, state and local government web resources and services.